This is the latest recevied weather packets stored in our database for station/object N1JOV-7. If no packets are shown the sender has not sent any weather packets the latest 10 day(s).
| Time | Temp. | Humidity | Pressure | Rain* | Wind** | Luminosity | Snow |
|---|---|---|---|---|---|---|---|
| 1777650661 | 14.44° C | 54% | 1008.2 hPa | 0 mm | - | - | - |
| 1777650061 | 13.89° C | 55% | 1008.1 hPa | 0 mm | - | - | - |
| 1777649461 | 13.89° C | 55% | 1008.1 hPa | 0 mm | - | - | - |
| 1777648862 | 12.78° C | 55% | 1008.3 hPa | 0 mm | - | - | - |
| 1777648262 | 12.78° C | 56% | 1008.2 hPa | 0 mm | - | - | - |
| 1777647662 | 13.33° C | 56% | 1008.3 hPa | 0 mm | - | - | - |
| 1777647062 | 13.33° C | 56% | 1008.4 hPa | 0 mm | - | - | - |
| 1777646462 | 12.22° C | 56% | 1008.5 hPa | 0 mm | - | - | - |
| 1777645862 | 12.22° C | 57% | 1008.5 hPa | 0 mm | - | - | - |
| 1777645261 | 11.67° C | 59% | 1008.6 hPa | 0 mm | - | - | - |
| 1777644661 | 11.67° C | 58% | 1008.6 hPa | 0 mm | - | - | - |
| 1777644062 | 11.67° C | 60% | 1008.4 hPa | 0 mm | - | - | - |
| 1777643462 | 11.11° C | 61% | 1008.5 hPa | 0 mm | - | - | - |
| 1777642862 | 11.67° C | 66% | 1008.3 hPa | 0 mm | - | - | - |
| 1777642262 | 11.11° C | 68% | 1008.3 hPa | 0 mm | - | - | - |
| 1777641662 | 11.11° C | 72% | 1008.2 hPa | 0 mm | - | - | - |
| 1777641062 | 10.56° C | 78% | 1008.3 hPa | 0 mm | - | - | - |
| 1777640461 | 10.56° C | 80% | 1008.2 hPa | 0 mm | - | - | - |
| 1777639861 | 9.44° C | 82% | 1008.3 hPa | 0 mm | - | - | - |
| 1777639262 | 9.44° C | 85% | 1008.3 hPa | 0 mm | - | - | - |
| 1777638662 | 9.44° C | 91% | 1008.3 hPa | 0 mm | - | - | - |
| 1777638062 | 8.89° C | 94% | 1008.4 hPa | 0 mm | - | - | - |
| 1777637462 | 8.33° C | 99% | 1008.3 hPa | 0 mm | - | - | - |
| 1777636862 | 7.78° C | 99% | 1008.1 hPa | 0 mm | - | - | - |
| 1777636262 | 7.22° C | 99% | 1008.2 hPa | 0 mm | - | - | - |
* Rain latest hour (hover to see other rain measurements)
** Current wind speed in m/s (hover to see current wind gust speed)